[[{"header":{"parameterUnit":"m.s-1","parameterCategory":2,"la1":30.2992,"la2":30.254,"lo1":-89.0895,"lo2":-89.0443,"dy":0.0025,"dx":0.0025,"nx":19,"ny":19,"refTime":"2026-03-07T03:00:00:Z","depth":"0","parameterNumber":2,"parameterNumberName":"U-component_of_CURRENTS"},"data":[0,0,0,-0.2115,-0.2114,-0.2054,-0.2053,-0.1995,-0.1994,0,0,0,0,0,0,0,0,0,0,0,-0.2131,-0.2131,-0.2116,-0.2114,-0.2054,-0.2053,-0.1995,-0.1994,0,0,0,0,0,0,0,0,0,0,0,-0.2132,-0.2131,-0.2131,-0.2114,-0.2054,-0.2053,-0.1995,-0.2034,0,0,0,0,0,0,0,0,0,0,-0.2089,-0.2107,-0.2131,-0.2131,-0.2114,-0.2054,-0.2053,-0.2035,-0.2031,-0.2031,0,-0.2022,0,-0.2013,-0.1992,-0.1992,0,0,0,-0.2105,-0.211,-0.2094,-0.2131,-0.2113,-0.2054,-0.2078,-0.2033,-0.2028,-0.2026,-0.2021,-0.2018,-0.2012,-0.1991,-0.1991,-0.21,-0.2101,0,0,-0.2108,-0.2119,-0.2097,-0.2092,-0.2099,-0.208,-0.2077,-0.203,-0.2026,-0.2021,-0.2017,-0.2011,-0.1991,-0.1991,-0.2098,-0.21,0,0,0,-0.2124,-0.2122,-0.2106,-0.2094,-0.2085,-0.2079,-0.2074,-0.2028,-0.2023,-0.2016,-0.2011,-0.1991,-0.199,-0.2097,-0.2099,-0.218,0,0,0,-0.2126,-0.2132,-0.2108,-0.2113,-0.2086,-0.2054,-0.2074,-0.2026,-0.202,-0.2011,-0.1991,-0.199,-0.2095,-0.2098,-0.2175,-0.2174,0,0,0,-0.2134,-0.2133,-0.2126,-0.2114,-0.2093,-0.2054,-0.2046,-0.2024,-0.2017,-0.1991,-0.199,-0.2094,-0.2097,-0.2169,-0.2167,-0.2084,0,0,0,-0.2147,-0.2175,-0.2126,-0.2162,-0.2093,-0.2124,-0.2046,-0.2052,-0.2039,-0.1991,-0.2095,-0.2099,-0.2168,-0.2163,-0.2082,-0.1855,-0.1847,0,0,-0.2202,-0.2182,-0.2209,-0.2164,-0.2218,-0.2131,-0.2196,-0.2133,-0.2097,-0.2106,-0.2108,-0.2176,-0.2166,-0.2084,-0.206,-0.2043,0,0,0,-0.2241,-0.2251,-0.2262,-0.2272,-0.2272,-0.2274,-0.2223,-0.2206,-0.2212,-0.2106,-0.2226,-0.2217,-0.216,-0.2023,-0.2012,-0.1938,-0.2115,-0.2114,-0.2114,-0.2317,-0.2322,-0.2367,-0.2375,-0.2392,-0.2378,-0.2376,-0.2352,-0.2308,-0.2344,-0.2322,-0.2367,-0.223,-0.2217,-0.2149,-0.2385,-0.2385,-0.2385,-0.2386,-0.2389,-0.2396,-0.2423,-0.2462,-0.2475,-0.251,-0.2512,-0.2486,-0.2454,-0.245,-0.239,-0.2166,-0.2208,-0.2141,-0.2392,-0.2391,-0.239,-0.2389,-0.2389,-0.2393,-0.2397,-0.2427,-0.2479,-0.2526,-0.2551,-0.2502,-0.2526,-0.2503,-0.2487,-0.2221,-0.2216,-0.2108,-0.242,-0.242,-0.242,-0.2419,-0.2419,-0.2419,-0.2363,-0.2398,-0.2396,-0.248,-0.2468,-0.2469,-0.2469,-0.2409,-0.2306,-0.2264,-0.2261,-0.2123,-0.2374,-0.2316,-0.2415,-0.2415,-0.2416,-0.2416,-0.2417,-0.2289,-0.2316,-0.2304,-0.2291,-0.2264,-0.2155,-0.222,-0.2073,-0.2028,-0.1945,-0.1886,-0.211,-0.2023,-0.203,-0.1964,-0.1964,-0.1964,-0.1964,-0.1964,-0.2201,-0.2238,-0.2142,-0.2067,-0.1982,-0.1965,-0.1717,-0.1682,-0.1651,-0.1588,-0.1668,-0.1648,-0.1669,-0.1564,-0.1581,-0.1507,-0.1392,-0.1392,-0.1391,-0.2095,-0.2105,-0.1973,-0.1948,-0.1826,-0.1681,-0.1457,-0.136,-0.133,-0.1373,-0.162,-0.1644,-0.1631,-0.1669,-0.1517,-0.1547,-0.1431,0,0]},{"header":{"parameterUnit":"m.s-1","parameterCategory":2,"la1":30.2992,"la2":30.254,"lo1":-89.0895,"lo2":-89.0443,"dy":0.0025,"dx":0.0025,"nx":19,"ny":19,"refTime":"2026-03-07T03:00:00:Z","depth":"0","parameterNumber":3,"parameterNumberName":"V-component_of_CURRENTS"},"data":[0,0,0,-0.0275,-0.0276,-0.0266,-0.0266,-0.0171,-0.017,0,0,0,0,0,0,0,0,0,0,0,-0.0273,-0.0273,-0.0275,-0.0276,-0.0266,-0.0266,-0.0171,-0.017,0,0,0,0,0,0,0,0,0,0,0,-0.0273,-0.0273,-0.0274,-0.0276,-0.0266,-0.0266,-0.0171,-0.0194,0,0,0,0,0,0,0,0,0,0,-0.0212,-0.0226,-0.0273,-0.0274,-0.0276,-0.0266,-0.0266,-0.0196,-0.0193,-0.0158,0,-0.0169,0,-0.0176,-0.0164,-0.0163,0,0,0,-0.0256,-0.0229,-0.0234,-0.0274,-0.0276,-0.0267,-0.0265,-0.0195,-0.0191,-0.0153,-0.0168,-0.0165,-0.0175,-0.0163,-0.0162,-0.0137,-0.0137,0,0,-0.0256,-0.0258,-0.0237,-0.0232,-0.0288,-0.0265,-0.0265,-0.0193,-0.0189,-0.0167,-0.0163,-0.0173,-0.0162,-0.0162,-0.0136,-0.0137,0,0,0,-0.0271,-0.0258,-0.0266,-0.0235,-0.0246,-0.0266,-0.0265,-0.0191,-0.0197,-0.0162,-0.0172,-0.0162,-0.0161,-0.0136,-0.0137,-0.0202,0,0,0,-0.0271,-0.0269,-0.0266,-0.0265,-0.0248,-0.023,-0.0265,-0.0202,-0.0194,-0.0173,-0.0162,-0.016,-0.0135,-0.0136,-0.0199,-0.0206,0,0,0,-0.0271,-0.0268,-0.0274,-0.0266,-0.0272,-0.0232,-0.0232,-0.02,-0.0201,-0.0163,-0.0159,-0.0135,-0.0136,-0.0197,-0.0202,-0.0085,0,0,0,-0.0262,-0.0313,-0.0274,-0.0331,-0.0273,-0.0303,-0.0233,-0.0233,-0.021,-0.0161,-0.0136,-0.0137,-0.0196,-0.02,-0.0085,0.0007,0.0016,0,0,-0.0333,-0.0321,-0.0359,-0.0325,-0.0391,-0.0302,-0.0328,-0.0261,-0.0209,-0.0148,-0.0148,-0.02,-0.0202,-0.0085,-0.0054,-0.0043,0,0,0,-0.0386,-0.042,-0.0431,-0.0455,-0.0441,-0.0404,-0.0342,-0.0288,-0.0233,-0.0204,-0.0203,-0.0201,-0.0125,-0.0071,-0.0063,0.009,-0.0141,-0.0141,-0.0141,-0.0474,-0.0485,-0.0553,-0.056,-0.0549,-0.0471,-0.0413,-0.0325,-0.0287,-0.0269,-0.0258,-0.022,-0.017,-0.0161,-0.0008,-0.0273,-0.0273,-0.0274,-0.0274,-0.0615,-0.0672,-0.0644,-0.0717,-0.0644,-0.0632,-0.048,-0.0417,-0.0283,-0.03,-0.0221,-0.015,-0.0156,0.0004,-0.0278,-0.0277,-0.0277,-0.0276,-0.0276,-0.0704,-0.0735,-0.0761,-0.0819,-0.0792,-0.0707,-0.0602,-0.049,-0.0333,-0.0277,-0.0117,-0.0115,0.0042,-0.0218,-0.0218,-0.0217,-0.0217,-0.0217,-0.0216,-0.0787,-0.0816,-0.0879,-0.0914,-0.0906,-0.0841,-0.0662,-0.0523,-0.0278,-0.015,-0.0148,0.0072,-0.02,-0.0184,-0.021,-0.0211,-0.0212,-0.0212,-0.0213,-0.0927,-0.0905,-0.1004,-0.1018,-0.0988,-0.0893,-0.0728,-0.0383,-0.0193,-0.0021,0.0235,-0.0031,0.0035,0.0029,0.0052,0.0091,0.0091,0.0091,0.0091,-0.0983,-0.0996,-0.1074,-0.1085,-0.1044,-0.0904,-0.0618,-0.0258,0.0195,0.0413,0.0443,0.0425,0.0406,0.0492,0.0476,0.0508,0.0661,0.0662,0.0663,-0.1048,-0.1064,-0.1109,-0.1119,-0.1059,-0.0891,-0.0585,-0.0123,0.047,0.0698,0.0641,0.0617,0.0595,0.0553,0.0686,0.0652,0.0703,0,0]}],[{"header":{"parameterUnit":"m.s-1","parameterCategory":2,"la1":30.2992,"la2":30.254,"lo1":-89.0895,"lo2":-89.0443,"dy":0.0025,"dx":0.0025,"nx":19,"ny":19,"refTime":"2026-03-07T03:00:00:Z","depth":"2","parameterNumber":2,"parameterNumberName":"U-component_of_CURRENTS"},"data":[0,0,0,-0.1861,-0.1867,-0.211,-0.2111,-0.2275,-0.2276,0,0,0,0,0,0,0,0,0,0,0,-0.1746,-0.1747,-0.1861,-0.1867,-0.211,-0.2111,-0.2275,-0.2276,0,0,0,0,0,0,0,0,0,0,0,-0.1745,-0.1747,-0.1748,-0.1868,-0.2109,-0.2111,-0.2274,-0.2127,0,0,0,0,0,0,0,0,0,0,-0.1909,-0.1844,-0.1746,-0.1748,-0.1869,-0.2109,-0.2111,-0.2121,-0.2136,-0.2124,0,-0.2148,0,-0.2228,-0.2284,-0.2284,0,0,0,-0.1865,-0.1832,-0.1883,-0.1748,-0.1872,-0.2109,-0.2,-0.2131,-0.2147,-0.2142,-0.2151,-0.2159,-0.2231,-0.2284,-0.2285,-0.2409,-0.2409,0,0,-0.1852,-0.1808,-0.1872,-0.1893,-0.1915,-0.1992,-0.2007,-0.2142,-0.2155,-0.2152,-0.2165,-0.2233,-0.2285,-0.2286,-0.2408,-0.2409,0,0,0,-0.1814,-0.1798,-0.1849,-0.1884,-0.1947,-0.1999,-0.2017,-0.215,-0.2162,-0.2167,-0.2235,-0.2286,-0.2287,-0.2408,-0.2409,-0.2387,0,0,0,-0.1806,-0.1777,-0.1842,-0.1822,-0.1945,-0.2079,-0.202,-0.2152,-0.2172,-0.2234,-0.2286,-0.2289,-0.2407,-0.2408,-0.2386,-0.2328,0,0,0,-0.1738,-0.1772,-0.179,-0.1818,-0.1928,-0.2079,-0.2102,-0.2159,-0.2212,-0.2284,-0.2289,-0.2407,-0.2408,-0.2386,-0.2329,-0.2241,0,0,0,-0.1699,-0.1758,-0.1788,-0.187,-0.1925,-0.2061,-0.2103,-0.2226,-0.2291,-0.2287,-0.2407,-0.2408,-0.2385,-0.233,-0.2243,-0.2088,-0.2066,0,0,-0.1756,-0.1763,-0.181,-0.1845,-0.1972,-0.2029,-0.2147,-0.2253,-0.2298,-0.235,-0.2355,-0.2386,-0.2329,-0.2242,-0.2154,-0.2129,0,0,0,-0.1819,-0.1839,-0.1878,-0.1965,-0.2059,-0.2121,-0.2246,-0.2288,-0.2378,-0.2345,-0.2416,-0.238,-0.2325,-0.2238,-0.2219,-0.2414,-0.2414,-0.2414,-0.2413,-0.1802,-0.1874,-0.1938,-0.202,-0.2099,-0.2214,-0.2242,-0.2317,-0.2386,-0.2433,-0.2386,-0.2333,-0.2246,-0.2228,-0.244,-0.244,-0.244,-0.244,-0.244,-0.185,-0.1868,-0.1949,-0.2047,-0.2108,-0.2199,-0.2269,-0.2314,-0.2325,-0.2415,-0.2363,-0.225,-0.2205,-0.2439,-0.2439,-0.2439,-0.2439,-0.2439,-0.2439,-0.1801,-0.1816,-0.1893,-0.2001,-0.2064,-0.2156,-0.2137,-0.2209,-0.2271,-0.2231,-0.2111,-0.211,-0.225,-0.2216,-0.2215,-0.2214,-0.2214,-0.2213,-0.2213,-0.1713,-0.1782,-0.1812,-0.1925,-0.1949,-0.2001,-0.2059,-0.2045,-0.2017,-0.2034,-0.2033,-0.2255,-0.2262,-0.2237,-0.2204,-0.2205,-0.2207,-0.2207,-0.2208,-0.165,-0.1659,-0.1684,-0.1713,-0.1773,-0.1719,-0.1828,-0.1762,-0.1751,-0.1689,-0.1901,-0.1911,-0.1877,-0.1892,-0.1858,-0.1728,-0.1728,-0.1727,-0.1727,-0.1542,-0.1572,-0.1537,-0.1531,-0.1537,-0.1573,-0.1423,-0.1397,-0.1462,-0.1472,-0.1483,-0.1531,-0.1555,-0.1507,-0.1531,-0.1492,-0.1266,-0.1265,-0.1265,-0.1463,-0.1462,-0.1392,-0.1415,-0.1422,-0.1375,-0.1185,-0.1039,-0.1078,-0.1251,-0.1451,-0.1687,-0.1793,-0.1817,-0.1777,-0.1803,-0.1752,0,0]},{"header":{"parameterUnit":"m.s-1","parameterCategory":2,"la1":30.2992,"la2":30.254,"lo1":-89.0895,"lo2":-89.0443,"dy":0.0025,"dx":0.0025,"nx":19,"ny":19,"refTime":"2026-03-07T03:00:00:Z","depth":"2","parameterNumber":3,"parameterNumberName":"V-component_of_CURRENTS"},"data":[0,0,0,-0.0327,-0.0327,-0.0279,-0.0278,-0.0167,-0.0167,0,0,0,0,0,0,0,0,0,0,0,-0.0336,-0.0336,-0.0327,-0.0327,-0.0279,-0.0278,-0.0168,-0.0167,0,0,0,0,0,0,0,0,0,0,0,-0.0336,-0.0336,-0.0336,-0.0327,-0.0279,-0.0278,-0.0168,-0.0211,0,0,0,0,0,0,0,0,0,0,-0.0262,-0.0285,-0.0336,-0.0336,-0.0327,-0.0279,-0.0278,-0.0214,-0.0208,-0.0182,0,-0.0185,0,-0.0185,-0.016,-0.016,0,0,0,-0.0305,-0.029,-0.0282,-0.0336,-0.0327,-0.0279,-0.0294,-0.0211,-0.0205,-0.0175,-0.0184,-0.018,-0.0183,-0.0159,-0.0159,-0.0064,-0.0063,0,0,-0.0308,-0.0317,-0.0287,-0.0279,-0.0326,-0.0296,-0.0293,-0.0208,-0.0203,-0.0183,-0.0178,-0.0182,-0.0159,-0.0158,-0.0064,-0.0064,0,0,0,-0.033,-0.0319,-0.0314,-0.0283,-0.0285,-0.0295,-0.0292,-0.0206,-0.0206,-0.0177,-0.018,-0.0158,-0.0157,-0.0064,-0.0064,-0.0147,0,0,0,-0.0331,-0.0334,-0.0315,-0.0319,-0.0288,-0.0253,-0.0292,-0.0212,-0.0203,-0.0181,-0.0158,-0.0156,-0.0065,-0.0064,-0.0145,-0.0208,0,0,0,-0.0336,-0.0334,-0.0334,-0.032,-0.0311,-0.0254,-0.0248,-0.021,-0.0206,-0.016,-0.0156,-0.0065,-0.0064,-0.0144,-0.0204,-0.0169,0,0,0,-0.0339,-0.0368,-0.0334,-0.0357,-0.0311,-0.0293,-0.0249,-0.0223,-0.0188,-0.0158,-0.0065,-0.0064,-0.0144,-0.0201,-0.0167,-0.0129,-0.0132,0,0,-0.0385,-0.0373,-0.0387,-0.0356,-0.037,-0.0297,-0.0286,-0.0225,-0.0162,-0.0086,-0.0084,-0.0146,-0.0203,-0.0168,-0.0086,-0.009,0,0,0,-0.0407,-0.042,-0.0415,-0.0412,-0.0377,-0.0342,-0.0271,-0.0226,-0.0154,-0.0143,-0.0107,-0.014,-0.0116,-0.0088,-0.0091,-0.006,-0.006,-0.0061,-0.0061,-0.0474,-0.046,-0.0484,-0.046,-0.0437,-0.0364,-0.0325,-0.0242,-0.018,-0.0149,-0.0178,-0.0174,-0.0145,-0.0147,-0.0129,-0.0129,-0.0129,-0.013,-0.013,-0.0558,-0.0573,-0.0543,-0.0569,-0.0511,-0.0484,-0.0373,-0.0322,-0.0242,-0.02,-0.017,-0.0142,-0.0155,-0.0135,-0.0134,-0.0134,-0.0133,-0.0133,-0.0132,-0.0608,-0.0615,-0.0629,-0.0653,-0.0636,-0.0565,-0.0522,-0.044,-0.0324,-0.0315,-0.0211,-0.0209,-0.0232,-0.0273,-0.0273,-0.0274,-0.0274,-0.0274,-0.0274,-0.0655,-0.0667,-0.0718,-0.0735,-0.0739,-0.0713,-0.0605,-0.0529,-0.039,-0.0302,-0.03,-0.0221,-0.0216,-0.0237,-0.0276,-0.0275,-0.0275,-0.0275,-0.0275,-0.0717,-0.0727,-0.08,-0.0828,-0.0839,-0.0802,-0.0707,-0.052,-0.0423,-0.034,-0.0257,-0.0256,-0.0217,-0.0213,-0.0231,-0.0266,-0.0266,-0.0266,-0.0266,-0.075,-0.0765,-0.0854,-0.0901,-0.0911,-0.0839,-0.0702,-0.0505,-0.0324,-0.0237,-0.0238,-0.0211,-0.0212,-0.017,-0.0166,-0.0182,-0.0205,-0.0205,-0.0205,-0.0787,-0.0811,-0.0872,-0.0924,-0.0937,-0.085,-0.0697,-0.0426,-0.0188,-0.0204,-0.0246,-0.0258,-0.022,-0.022,-0.0154,-0.015,-0.0174,0,0]}],[{"header":{"parameterUnit":"m.s-1","parameterCategory":2,"la1":30.2992,"la2":30.254,"lo1":-89.0895,"lo2":-89.0443,"dy":0.0025,"dx":0.0025,"nx":19,"ny":19,"refTime":"2026-03-07T03:00:00:Z","depth":"4","parameterNumber":2,"parameterNumberName":"U-component_of_CURRENTS"},"data":[0,0,0,-0.1041,-0.1043,-0.113,-0.1131,-0.1197,-0.1197,0,0,0,0,0,0,0,0,0,0,0,-0.1022,-0.1023,-0.1041,-0.1043,-0.113,-0.1131,-0.1197,-0.1197,0,0,0,0,0,0,0,0,0,0,0,-0.1022,-0.1023,-0.1024,-0.1043,-0.113,-0.1131,-0.1197,-0.1145,0,0,0,0,0,0,0,0,0,0,-0.1067,-0.1049,-0.1023,-0.1024,-0.1043,-0.113,-0.1131,-0.1143,-0.1148,-0.1141,0,-0.1159,0,-0.1169,-0.12,-0.12,0,0,0,-0.1054,-0.1045,-0.1067,-0.1024,-0.1044,-0.113,-0.1094,-0.1146,-0.1152,-0.1147,-0.116,-0.1163,-0.117,-0.12,-0.12,-0.1296,-0.1297,0,0,-0.1049,-0.1038,-0.1064,-0.1071,-0.1072,-0.1091,-0.1097,-0.115,-0.1158,-0.116,-0.1164,-0.1171,-0.12,-0.12,-0.1295,-0.1296,0,0,0,-0.1028,-0.1035,-0.1057,-0.1068,-0.1082,-0.1093,-0.11,-0.1156,-0.1164,-0.1165,-0.1172,-0.12,-0.1201,-0.1294,-0.1296,-0.1332,0,0,0,-0.1025,-0.1021,-0.1055,-0.1049,-0.1081,-0.1125,-0.1104,-0.116,-0.1166,-0.1171,-0.12,-0.1201,-0.1293,-0.1295,-0.1329,-0.1329,0,0,0,-0.1017,-0.102,-0.1032,-0.1048,-0.108,-0.1124,-0.1136,-0.1163,-0.1169,-0.12,-0.1201,-0.1293,-0.1295,-0.1326,-0.1326,-0.135,0,0,0,-0.1,-0.1019,-0.1032,-0.1057,-0.1079,-0.1142,-0.1136,-0.1189,-0.122,-0.1201,-0.1294,-0.1295,-0.1325,-0.1324,-0.1348,-0.1131,0,0,0,-0.101,-0.102,-0.1034,-0.1048,-0.1101,-0.1131,-0.1202,-0.1238,-0.1245,-0.1272,-0.1275,-0.133,-0.1325,-0.1349,-0.1244,0,0,0,0,-0.1028,-0.1041,-0.106,-0.1095,-0.1142,-0.1199,-0.1244,-0.1271,-0.1327,-0.127,-0.1358,-0.1354,-0.1368,-0.1237,-0.1305,-0.1304,-0.1304,-0.1304,-0.1304,-0.1012,-0.1045,-0.1081,-0.1131,-0.1172,-0.1259,-0.1305,-0.1353,-0.1363,-0.1404,-0.1406,-0.1476,-0.1343,-0.1438,-0.1438,-0.1439,-0.1439,-0.1439,-0.1439,-0.1011,-0.102,-0.1086,-0.1135,-0.1207,-0.1279,-0.1361,-0.1398,-0.1472,-0.1467,-0.1479,-0.1311,-0.1443,-0.1442,-0.1442,-0.1441,-0.1441,-0.1441,-0.144,-0.0974,-0.0984,-0.1037,-0.1108,-0.1204,-0.1295,-0.1372,-0.1455,-0.149,-0.1521,-0.1394,-0.1501,-0.1472,-0.1546,-0.1546,-0.1547,-0.1547,-0.1547,-0.1547,-0.0894,-0.095,-0.0994,-0.1084,-0.1146,-0.125,-0.1396,-0.1426,-0.1491,-0.1408,-0.1545,-0.1512,-0.1508,-0.1479,-0.1549,-0.1549,-0.1548,-0.1548,-0.1548,-0.0813,-0.0857,-0.09,-0.0961,-0.1096,-0.1168,-0.1322,-0.133,-0.1352,-0.1296,-0.1339,-0.1348,-0.131,-0.1311,-0.1273,-0.1284,-0.1282,-0.1279,0,-0.0743,-0.0775,-0.0817,-0.0883,-0.0963,-0.1103,-0.1096,-0.1153,-0.1188,-0.1148,-0.1355,-0.1405,-0.1409,-0.1368,-0.1365,-0.1321,0,0,0,-0.0681,-0.0708,-0.0713,-0.0805,-0.0892,-0.0968,-0.109,-0.105,-0.119,-0.1115,-0.1215,-0.1232,-0.1416,-0.1555,-0.1519,-0.1515,-0.1466,0,0]},{"header":{"parameterUnit":"m.s-1","parameterCategory":2,"la1":30.2992,"la2":30.254,"lo1":-89.0895,"lo2":-89.0443,"dy":0.0025,"dx":0.0025,"nx":19,"ny":19,"refTime":"2026-03-07T03:00:00:Z","depth":"4","parameterNumber":3,"parameterNumberName":"V-component_of_CURRENTS"},"data":[0,0,0,-0.0213,-0.0213,-0.0197,-0.0197,-0.0151,-0.0151,0,0,0,0,0,0,0,0,0,0,0,-0.0217,-0.0217,-0.0213,-0.0213,-0.0197,-0.0197,-0.0151,-0.0151,0,0,0,0,0,0,0,0,0,0,0,-0.0217,-0.0217,-0.0217,-0.0213,-0.0197,-0.0197,-0.0151,-0.0167,0,0,0,0,0,0,0,0,0,0,-0.0185,-0.0196,-0.0217,-0.0217,-0.0213,-0.0197,-0.0197,-0.0168,-0.0166,-0.0155,0,-0.0158,0,-0.0158,-0.0148,-0.0148,0,0,0,-0.0203,-0.0197,-0.0195,-0.0217,-0.0213,-0.0197,-0.0202,-0.0167,-0.0165,-0.0152,-0.0158,-0.0156,-0.0158,-0.0148,-0.0148,-0.013,-0.013,0,0,-0.0204,-0.0209,-0.0197,-0.0194,-0.0217,-0.0202,-0.0201,-0.0166,-0.0165,-0.0158,-0.0155,-0.0157,-0.0147,-0.0147,-0.013,-0.013,0,0,0,-0.0214,-0.0209,-0.0209,-0.0196,-0.0198,-0.0202,-0.0201,-0.0166,-0.0167,-0.0155,-0.0156,-0.0147,-0.0147,-0.0129,-0.013,-0.0186,0,0,0,-0.0214,-0.0216,-0.0209,-0.0211,-0.0199,-0.0186,-0.0202,-0.0169,-0.0166,-0.0157,-0.0147,-0.0146,-0.0129,-0.013,-0.0184,-0.0212,0,0,0,-0.0216,-0.0216,-0.0217,-0.0211,-0.021,-0.0186,-0.0184,-0.0168,-0.0167,-0.0148,-0.0146,-0.0129,-0.0129,-0.0183,-0.0208,-0.0191,0,0,0,-0.0217,-0.0234,-0.0217,-0.0238,-0.021,-0.0217,-0.0185,-0.0185,-0.0174,-0.0147,-0.0129,-0.013,-0.0182,-0.0207,-0.019,-0.0182,0,0,0,-0.0243,-0.0238,-0.0251,-0.0236,-0.0265,-0.0218,-0.0231,-0.0204,-0.0171,-0.0137,-0.0137,-0.0185,-0.0208,-0.019,-0.0197,0,0,0,0,-0.0262,-0.0274,-0.0279,-0.029,-0.0282,-0.0276,-0.0242,-0.0219,-0.0193,-0.0167,-0.0174,-0.0187,-0.0174,-0.0166,-0.0131,-0.0131,-0.0131,-0.0131,-0.0131,-0.0297,-0.0304,-0.0333,-0.034,-0.0338,-0.0313,-0.0298,-0.0256,-0.0223,-0.0219,-0.0225,-0.0241,-0.0235,-0.0213,-0.0213,-0.0214,-0.0214,-0.0214,-0.0214,-0.0351,-0.0367,-0.0376,-0.041,-0.0399,-0.0399,-0.0349,-0.0323,-0.0282,-0.026,-0.0244,-0.0217,-0.022,-0.0218,-0.0218,-0.0217,-0.0217,-0.0216,-0.0216,-0.0377,-0.0385,-0.0413,-0.0458,-0.0475,-0.0454,-0.0442,-0.0397,-0.0333,-0.0328,-0.0279,-0.0263,-0.0265,-0.0308,-0.0309,-0.0309,-0.0309,-0.0309,-0.0309,-0.0384,-0.0411,-0.0464,-0.0506,-0.0532,-0.0543,-0.0496,-0.0454,-0.0386,-0.0338,-0.0335,-0.0272,-0.0268,-0.0269,-0.031,-0.0309,-0.0309,-0.0309,-0.0309,-0.0398,-0.0424,-0.0497,-0.0541,-0.0602,-0.0601,-0.0567,-0.0461,-0.0411,-0.0351,-0.0322,-0.0321,-0.0291,-0.0287,-0.0287,-0.0335,-0.0335,-0.0335,0,-0.0402,-0.0423,-0.0519,-0.0587,-0.0632,-0.0629,-0.0565,-0.0501,-0.0402,-0.0401,-0.0411,-0.0384,-0.0381,-0.0352,-0.0348,-0.0351,0,0,0,-0.041,-0.0443,-0.0504,-0.0588,-0.0639,-0.0582,-0.0544,-0.0497,-0.0431,-0.036,-0.0336,-0.0336,-0.0344,-0.0312,-0.0262,-0.0259,-0.0256,0,0]}]]